Погода в Тиволи

Италия     41°57′24″N   12°48′13″E
темп.,
°C
ветер,
м/с
пор.,
м/с
влажн.,
%
обл.,
%
осадки,
мм/ч
давл.,
гПа
погр.,
м
13 апреля, вт
вт1323:00+10юв1298100 17.6 1017170
02:00+8ю2589100 22.6 1017386
05:00+7юв378354 0.1 1016293
08:00+8вюв358380 0.1 1016228
11:00+11ююз126798 0.1 1017940
14:00+14сз135393 0.2 10171540
17:00+11з128383 1.2 1017177
20:00+8сз229417 2.4 101872
14 апреля, ср
ср1423:00+6с12958 0.0 102057
02:00+4с11943 0.0 101931
05:00+4св22920 0.0 101927
08:00+7св12843 0.0 102099
11:00+13ююв015622 0.0 10201169
14:00+13зюз426274 0.1 10201088
17:00+12юз336796 0.4 10191070
20:00+10зсз1276100 0.8 102065
15 апреля, чт
чт1523:00+9св118299 0.1 102028
02:00+8св228378 0.3 101938
05:00+7всв228874 0.0 101940
08:00+8всв118034 0.0 1019120
11:00+13зюз116152 0.4 10191037
14:00+14зюз225890 1.4 10181265
17:00+12з226881 1.6 1017915
20:00
16 апреля, пт
пт1623:00+9св118582 0.1 101822
02:00+7всв2288100 0.1 101728
05:00+6всв229172 0.0 101634
08:00+7всв2282100 0.0 1015101
11:00+13с115696 0.0 1014879
14:00+16сз2343100 0.0 10112043
17:00+16сз2347100 0.0 10091242
20:00+11ююз2475100 0.3 1013146
17 апреля, сб
сб1723:00+8в337683 0.1 101149
02:00+7всв3471100 0.1 101179
05:00+6всв226917 0.0 101042
08:00+7всв226520 0.0 1010130
11:00+14зюз114460 0.0 10091211
14:00+15зсз224226 0.0 10081670
17:00+14зюз115148 0.2 10081289
20:00+10ююз22815 0.6 100952